CUSAT 2 & FALCON 9 R/B (39271 NORAD) Tracking and Keplerian Element Data

This shows tracking and keplerian element data for the satellite.

Feedback or suggestion? Click here.




ElementValue
Catalog39271
NameCUSAT 2 & FALCON 9 R/B
Epoch Orbit58335
Epoch Day286.47622563
Epoch Year2024
RAAN295.5625
Inclination80.9195
Eccentricity0.0218226
Argument of Perigee265.5135
Mean Anonmoly92.1153
Mean Motion15.47420855
Decay Rate0.00112095
L11 39271U 13055G 24286.47622563 .00112095 23676-5 82547-3 0 9999
L22 39271 80.9195 295.5625 0218226 265.5135 92.1153 15.47420855583354



Live tracking and technical data element details for CUSAT 2 & FALCON 9 R/B (NORAD 39271). CUSAT 2 & FALCON 9 R/B can be tracked NOW for your location showing map with azimuth and elevation plus other details from your city location.







IsCatalogInMostPopularTable: catalog: 39271, numindb: 1195
Update: records affected: 1



GetName: 39271 CUSAT 2 & FALCON 9 R/B

Hit Count: updated at: Mon, 13 Jan 2025 19:31:04 GMT